Location: Natural Bridges National Monument
(37.6093°N, 109.9767°W)
Time: 11:33:10
(UTC-07:00)

Cosmos 1727 Rocket - Visible Passes

Search period start: 26 November 2014 00:00
Search period end: 06 December 2014 00:00
Orbit: 961 x 997 km, 82.9° (Epoch: 25 November)

Date Brightness Start Highest point End Pass type
(mag) Time Alt. Az. Time Alt. Az. Time Alt. Az.
29 Nov 6.1 19:10:47 10° N 19:11:00 11° N 19:11:00 11° N visible
30 Nov 5.9 19:36:51 10° N 19:38:01 16° N 19:38:01 16° N visible
01 Dec 5.7 18:19:17 10° NNE 18:20:31 14° NE 18:20:31 14° NE visible
01 Dec 5.8 20:03:20 10° NNW 20:05:20 22° NNW 20:05:20 22° NNW visible
02 Dec 4.8 18:44:39 10° N 18:48:30 30° NE 18:48:30 30° NE visible
02 Dec 5.8 20:30:15 10° NNW 20:40:59 11° SW 20:41:09 10° SSW visible
03 Dec 7.2 06:33:20 10° E 06:33:58 10° ENE 06:34:36 10° ENE visible
03 Dec 3.9 19:10:39 10° N 19:16:58 67° E 19:23:15 10° SSE visible
03 Dec 6.4 20:57:59 10° NW 21:01:41 16° W 21:05:24 10° WSW visible
04 Dec 5.3 17:53:20 10° NNE 17:57:22 17° ENE 18:01:22 10° ESE visible
04 Dec 4.3 19:37:04 10° NNW 19:43:20 67° W 19:49:36 10° S visible
05 Dec 4.6 18:18:33 10° NNE 18:24:09 32° ENE 18:29:44 10° SE visible
05 Dec 5.4 20:03:54 10° NNW 20:09:32 35° W 20:15:10 10° SSW visible
